StationID,Date,MaxTemp,MinTemp,Precipitation,Snowfall,SnowDepth
"US1AKKP0001","2008-06-26",,,0.00,0.00,
"US1AKKP0001","2008-06-27",,,0.00,0.00,
"US1AKKP0001","2008-06-28",,,53.00,0.00,
"US1AKKP0001","2008-06-29",,,13.00,0.00,
"US1AKKP0001","2008-06-30",,,0.00,0.00,
"US1AKKP0001","2008-07-01",,,0.00,0.00,
"US1AKKP0001","2008-07-02",,,0.00,0.00,
"US1AKKP0001","2008-07-03",,,0.00,0.00,
"US1AKKP0001","2008-07-04",,,38.00,0.00,
"US1AKKP0001","2008-07-05",,,18.00,0.00,
"US1AKKP0001","2008-07-06",,,8.00,0.00,
"US1AKKP0001","2008-07-07",,,107.00,0.00,
"US1AKKP0001","2008-07-08",,,28.00,0.00,
"US1AKKP0001","2008-07-09",,,0.00,0.00,
"US1AKKP0001","2008-07-10",,,0.00,0.00,
"US1AKKP0001","2008-07-11",,,0.00,0.00,
"US1AKKP0001","2008-07-12",,,0.00,0.00,
"US1AKKP0001","2008-07-13",,,15.00,0.00,
"US1AKKP0001","2008-07-14",,,0.00,0.00,
"US1AKKP0001","2008-07-15",,,0.00,0.00,
"US1AKKP0001","2008-07-16",,,0.00,0.00,
"US1AKKP0001","2008-07-17",,,130.00,0.00,
"US1AKKP0001","2008-07-18",,,10.00,0.00,
"US1AKKP0001","2008-07-19",,,3.00,0.00,
"US1AKKP0001","2008-07-20",,,0.00,0.00,
"US1AKKP0001","2008-07-21",,,0.00,0.00,
"US1AKKP0001","2008-07-22",,,36.00,0.00,
"US1AKKP0001","2008-07-23",,,94.00,0.00,
"US1AKKP0001","2008-07-24",,,160.00,0.00,
"US1AKKP0001","2008-07-25",,,30.00,0.00,
"US1AKKP0001","2008-07-26",,,25.00,0.00,
"US1AKKP0001","2008-07-27",,,127.00,0.00,
"US1AKKP0001","2008-07-28",,,15.00,0.00,
"US1AKKP0001","2008-07-29",,,3.00,0.00,
"US1AKKP0001","2008-07-30",,,0.00,0.00,
"US1AKKP0001","2008-07-31",,,0.00,0.00,
"US1AKKP0001","2008-08-01",,,0.00,0.00,
"US1AKKP0001","2008-08-02",,,0.00,0.00,
"US1AKKP0001","2008-08-03",,,0.00,0.00,
"US1AKKP0001","2008-08-04",,,0.00,0.00,
"US1AKKP0001","2008-08-05",,,0.00,0.00,
"US1AKKP0001","2008-08-06",,,8.00,0.00,
"US1AKKP0001","2008-08-07",,,0.00,0.00,
"US1AKKP0001","2008-08-08",,,0.00,0.00,
"US1AKKP0001","2008-08-09",,,0.00,0.00,
"US1AKKP0001","2008-08-10",,,0.00,0.00,
"US1AKKP0001","2008-08-11",,,0.00,0.00,
"US1AKKP0001","2008-08-12",,,0.00,0.00,
"US1AKKP0001","2008-08-13",,,15.00,0.00,
"US1AKKP0001","2008-08-14",,,20.00,0.00,
"US1AKKP0001","2008-08-15",,,20.00,0.00,
"US1AKKP0001","2008-08-16",,,104.00,0.00,
"US1AKKP0001","2008-08-17",,,0.00,0.00,
"US1AKKP0001","2008-08-18",,,25.00,0.00,
"US1AKKP0001","2008-08-19",,,0.00,0.00,
"US1AKKP0001","2008-08-20",,,0.00,0.00,
"US1AKKP0001","2008-08-21",,,5.00,0.00,
"US1AKKP0001","2008-08-22",,,203.00,0.00,
"US1AKKP0001","2008-08-23",,,0.00,0.00,
"US1AKKP0001","2008-08-24",,,0.00,0.00,
"US1AKKP0001","2008-08-25",,,18.00,0.00,
"US1AKKP0001","2008-08-26",,,3.00,0.00,
"US1AKKP0001","2008-08-27",,,0.00,0.00,
"US1AKKP0001","2008-08-28",,,0.00,0.00,
"US1AKKP0001","2008-08-29",,,0.00,0.00,
"US1AKKP0001","2008-08-30",,,0.00,0.00,
"US1AKKP0001","2008-08-31",,,0.00,0.00,
"US1AKKP0001","2008-09-01",,,0.00,0.00,
"US1AKKP0001","2008-09-02",,,0.00,0.00,
"US1AKKP0001","2008-09-03",,,3.00,0.00,
"US1AKKP0001","2008-09-04",,,28.00,0.00,
"US1AKKP0001","2008-09-05",,,38.00,0.00,
"US1AKKP0001","2008-09-06",,,8.00,0.00,
"US1AKKP0001","2008-09-07",,,20.00,0.00,
"US1AKKP0001","2008-09-08",,,0.00,0.00,
"US1AKKP0001","2008-09-09",,,140.00,0.00,
"US1AKKP0001","2008-09-10",,,28.00,0.00,
"US1AKKP0001","2008-09-11",,,23.00,0.00,
"US1AKKP0001","2008-09-12",,,20.00,0.00,
"US1AKKP0001","2008-09-13",,,20.00,0.00,
"US1AKKP0001","2008-09-14",,,15.00,0.00,
"US1AKKP0001","2008-09-15",,,38.00,0.00,
"US1AKKP0001","2008-09-16",,,23.00,0.00,
"US1AKKP0001","2008-09-17",,,262.00,0.00,
"US1AKKP0001","2008-09-18",,,5.00,0.00,
"US1AKKP0001","2008-09-19",,,3.00,0.00,
"US1AKKP0001","2008-09-20",,,0.00,0.00,
"US1AKKP0001","2008-09-21",,,8.00,0.00,
"US1AKKP0001","2008-09-22",,,0.00,0.00,
"US1AKKP0001","2008-09-23",,,0.00,0.00,
"US1AKKP0001","2008-09-24",,,107.00,0.00,
"US1AKKP0001","2008-09-25",,,53.00,0.00,
"US1AKKP0001","2008-09-26",,,15.00,0.00,
"US1AKKP0001","2008-09-27",,,0.00,0.00,
"US1AKKP0001","2008-09-28",,,0.00,0.00,
"US1AKKP0001","2008-09-29",,,0.00,0.00,
"US1AKKP0001","2008-09-30",,,0.00,0.00,
"US1AKKP0001","2008-10-01",,,0.00,0.00,
"US1AKKP0001","2008-10-02",,,0.00,0.00,
"US1AKKP0001","2008-10-03",,,0.00,0.00,
"US1AKKP0001","2008-10-04",,,3.00,0.00,
"US1AKKP0001","2008-10-05",,,64.00,0.00,
"US1AKKP0001","2008-10-06",,,0.00,0.00,
"US1AKKP0001","2008-10-07",,,46.00,41.00,38.00
"US1AKKP0001","2008-10-08",,,8.00,3.00,13.00
"US1AKKP0001","2008-10-09",,,0.00,0.00,0.00
"US1AKKP0001","2008-10-10",,,218.00,25.00,0.00
"US1AKKP0001","2008-10-11",,,0.00,0.00,
"US1AKKP0001","2008-10-12",,,61.00,5.00,5.00
"US1AKKP0001","2008-10-13",,,69.00,36.00,25.00
"US1AKKP0001","2008-10-14",,,53.00,74.00,89.00
"US1AKKP0001","2008-10-15",,,69.00,38.00,102.00
"US1AKKP0001","2008-10-16",,,13.00,0.00,64.00
"US1AKKP0001","2008-10-17",,,0.00,0.00,64.00
"US1AKKP0001","2008-10-18",,,0.00,0.00,64.00
"US1AKKP0001","2008-10-19",,,0.00,0.00,51.00
"US1AKKP0001","2008-10-20",,,0.00,0.00,38.00
"US1AKKP0001","2008-10-21",,,18.00,0.00,25.00
"US1AKKP0001","2008-10-22",,,0.00,0.00,25.00
"US1AKKP0001","2008-10-23",,,3.00,3.00,13.00
"US1AKKP0001","2008-10-24",,,0.00,0.00,13.00
"US1AKKP0001","2008-10-25",,,0.00,0.00,13.00
"US1AKKP0001","2008-10-26",,,0.00,0.00,13.00
"US1AKKP0001","2008-10-27",,,0.00,0.00,13.00
"US1AKKP0001","2008-10-28",,,0.00,0.00,13.00
"US1AKKP0001","2008-10-29",,,0.00,0.00,13.00
"US1AKKP0001","2008-10-30",,,0.00,0.00,13.00
"US1AKKP0001","2008-10-31",,,0.00,0.00,13.00
"US1AKKP0001","2008-11-01",,,0.00,0.00,13.00
"US1AKKP0001","2008-11-02",,,0.00,0.00,13.00
"US1AKKP0001","2008-11-03",,,0.00,0.00,13.00
"US1AKKP0001","2008-11-04",,,8.00,20.00,25.00
"US1AKKP0001","2008-11-05",,,0.00,0.00,25.00
"US1AKKP0001","2008-11-06",,,0.00,0.00,25.00
"US1AKKP0001","2008-11-07",,,0.00,0.00,25.00
"US1AKKP0001","2008-11-08",,,0.00,0.00,25.00
"US1AKKP0001","2008-11-09",,,0.00,0.00,25.00
"US1AKKP0001","2008-11-10",,,0.00,0.00,25.00
"US1AKKP0001","2008-11-11",,,15.00,20.00,25.00
"US1AKKP0001","2008-11-12",,,46.00,51.00,51.00
"US1AKKP0001","2008-11-13",,,0.00,0.00,51.00
"US1AKKP0001","2008-11-14",,,0.00,0.00,51.00
"US1AKKP0001","2008-11-15",,,0.00,0.00,51.00
"US1AKKP0001","2008-11-16",,,0.00,0.00,38.00
"US1AKKP0001","2008-11-17",,,13.00,25.00,64.00
"US1AKKP0001","2008-11-18",,,0.00,0.00,51.00
"US1AKKP0001","2008-11-19",,,0.00,0.00,51.00
"US1AKKP0001","2008-11-20",,,0.00,0.00,51.00
"US1AKKP0001","2008-11-21",,,0.00,0.00,51.00
"US1AKKP0001","2008-11-22",,,3.00,20.00,64.00
"US1AKKP0001","2008-11-23",,,8.00,25.00,89.00
"US1AKKP0001","2008-11-24",,,25.00,64.00,102.00
"US1AKKP0001","2008-11-25",,,0.00,0.00,76.00
"US1AKKP0001","2008-11-26",,,33.00,48.00,114.00
"US1AKKP0001","2008-11-30",,,,,102.00
"US1AKKP0001","2008-12-01",,,5.00,8.00,102.00
"US1AKKP0001","2008-12-02",,,0.00,0.00,102.00
"US1AKKP0001","2008-12-03",,,0.00,0.00,102.00
"US1AKKP0001","2008-12-04",,,0.00,0.00,89.00
"US1AKKP0001","2008-12-05",,,5.00,3.00,76.00
"US1AKKP0001","2008-12-06",,,56.00,0.00,76.00
"US1AKKP0001","2008-12-07",,,13.00,0.00,76.00
"US1AKKP0001","2008-12-08",,,0.00,0.00,76.00
"US1AKKP0001","2008-12-09",,,0.00,0.00,76.00
"US1AKKP0001","2008-12-10",,,3.00,5.00,76.00
"US1AKKP0001","2008-12-11",,,0.00,0.00,76.00
"US1AKKP0001","2008-12-12",,,0.00,0.00,76.00
"US1AKKP0001","2008-12-13",,,0.00,0.00,76.00
"US1AKKP0001","2008-12-14",,,0.00,0.00,76.00
"US1AKKP0001","2008-12-15",,,0.00,0.00,76.00
"US1AKKP0001","2008-12-16",,,8.00,13.00,89.00
"US1AKKP0001","2008-12-17",,,0.00,0.00,89.00
"US1AKKP0001","2008-12-18",,,0.00,0.00,89.00
"US1AKKP0001","2008-12-19",,,0.00,0.00,89.00
"US1AKKP0001","2008-12-20",,,0.00,0.00,89.00
"US1AKKP0001","2008-12-21",,,0.00,0.00,89.00
"US1AKKP0001","2008-12-22",,,0.00,0.00,76.00
"US1AKKP0001","2008-12-23",,,43.00,71.00,140.00
"US1AKKP0001","2008-12-24",,,23.00,51.00,165.00
"US1AKKP0001","2008-12-25",,,8.00,15.00,178.00
"US1AKKP0001","2008-12-28",,,,,343.00
"US1AKKP0001","2008-12-29",,,0.00,0.00,330.00
"US1AKKP0001","2008-12-30",,,0.00,0.00,343.00
"US1AKKP0001","2008-12-31",,,0.00,0.00,343.00
"US1AKKP0001","2009-01-01",,,0.00,0.00,330.00
"US1AKKP0001","2009-01-02",,,0.00,0.00,330.00
"US1AKKP0001","2009-01-03",,,0.00,0.00,330.00
"US1AKKP0001","2009-01-04",,,0.00,0.00,318.00
"US1AKKP0001","2009-01-05",,,0.00,0.00,318.00
"US1AKKP0001","2009-01-06",,,0.00,0.00,305.00
"US1AKKP0001","2009-01-07",,,0.00,0.00,305.00
"US1AKKP0001","2009-01-08",,,0.00,0.00,292.00
"US1AKKP0001","2009-01-09",,,0.00,0.00,292.00
"US1AKKP0001","2009-01-10",,,0.00,0.00,279.00
"US1AKKP0001","2009-01-11",,,0.00,0.00,279.00
"US1AKKP0001","2009-01-12",,,15.00,20.00,292.00
"US1AKKP0001","2009-01-19",,,,,89.00
"US1AKKP0001","2009-01-20",,,5.00,0.00,89.00
"US1AKKP0001","2009-01-21",,,0.00,0.00,76.00
"US1AKKP0001","2009-01-22",,,0.00,0.00,76.00
"US1AKKP0001","2009-01-23",,,0.00,0.00,76.00
"US1AKKP0001","2009-01-24",,,3.00,8.00,76.00
"US1AKKP0001","2009-01-25",,,13.00,13.00,89.00
"US1AKKP0001","2009-01-26",,,0.00,0.00,89.00
"US1AKKP0001","2009-01-27",,,0.00,0.00,76.00
"US1AKKP0001","2009-01-28",,,0.00,0.00,76.00
"US1AKKP0001","2009-01-29",,,64.00,102.00,127.00
"US1AKKP0001","2009-01-30",,,38.00,84.00,216.00
"US1AKKP0001","2009-01-31",,,8.00,13.00,216.00
"US1AKKP0001","2009-02-01",,,0.00,0.00,203.00
"US1AKKP0001","2009-02-02",,,3.00,3.00,203.00
"US1AKKP0001","2009-02-03",,,3.00,8.00,203.00
"US1AKKP0001","2009-02-04",,,3.00,3.00,203.00
"US1AKKP0001","2009-02-05",,,3.00,3.00,203.00
"US1AKKP0001","2009-02-06",,,8.00,13.00,191.00
"US1AKKP0001","2009-02-07",,,0.00,0.00,178.00
"US1AKKP0001","2009-02-08",,,0.00,0.00,165.00
"US1AKKP0001","2009-02-09",,,0.00,0.00,165.00
"US1AKKP0001","2009-02-10",,,3.00,3.00,152.00
"US1AKKP0001","2009-02-11",,,5.00,13.00,165.00
"US1AKKP0001","2009-02-12",,,30.00,43.00,178.00
"US1AKKP0001","2009-02-13",,,0.00,0.00,165.00
"US1AKKP0001","2009-02-14",,,0.00,0.00,127.00
"US1AKKP0001","2009-02-15",,,18.00,20.00,140.00
"US1AKKP0001","2009-02-16",,,30.00,25.00,127.00
"US1AKKP0001","2009-02-17",,,0.00,0.00,114.00
"US1AKKP0001","2009-02-18",,,5.00,3.00,114.00
"US1AKKP0001","2009-02-19",,,43.00,46.00,152.00
"US1AKKP0001","2009-02-20",,,0.00,0.00,152.00
"US1AKKP0001","2009-02-21",,,0.00,0.00,140.00
"US1AKKP0001","2009-02-22",,,0.00,0.00,127.00
"US1AKKP0001","2009-02-23",,,0.00,0.00,127.00
"US1AKKP0001","2009-02-24",,,0.00,0.00,127.00
"US1AKKP0001","2009-02-25",,,0.00,0.00,127.00
"US1AKKP0001","2009-02-26",,,28.00,79.00,203.00
"US1AKKP0001","2009-02-27",,,0.00,0.00,178.00
"US1AKKP0001","2009-02-28",,,41.00,51.00,203.00
"US1AKKP0001","2009-03-01",,,5.00,3.00,203.00
"US1AKKP0001","2009-03-02",,,0.00,0.00,191.00
"US1AKKP0001","2009-03-03",,,0.00,0.00,178.00
"US1AKKP0001","2009-03-04",,,0.00,0.00,178.00
"US1AKKP0001","2009-03-05",,,25.00,10.00,178.00
"US1AKKP0001","2009-03-06",,,25.00,18.00,178.00
"US1AKKP0001","2009-03-07",,,0.00,0.00,178.00
"US1AKKP0001","2009-03-08",,,0.00,0.00,178.00
"US1AKKP0001","2009-03-09",,,25.00,38.00,216.00
"US1AKKP0001","2009-03-10",,,0.00,0.00,203.00
"US1AKKP0001","2009-03-12",,,,,216.00
"US1AKKP0001","2009-03-13",,,18.00,30.00,203.00
"US1AKKP0001","2009-03-14",,,5.00,5.00,178.00
"US1AKKP0001","2009-03-15",,,0.00,0.00,165.00
"US1AKKP0001","2009-03-16",,,0.00,0.00,165.00
"US1AKKP0001","2009-03-17",,,5.00,10.00,165.00
"US1AKKP0001","2009-03-18",,,0.00,0.00,165.00
"US1AKKP0001","2009-03-19",,,0.00,0.00,165.00
"US1AKKP0001","2009-03-20",,,0.00,0.00,165.00
"US1AKKP0001","2009-03-21",,,0.00,0.00,152.00
"US1AKKP0001","2009-03-22",,,0.00,0.00,152.00
"US1AKKP0001","2009-03-24",,,,,152.00
"US1AKKP0001","2009-03-25",,,0.00,0.00,140.00
"US1AKKP0001","2009-03-26",,,3.00,3.00,140.00
"US1AKKP0001","2009-03-27",,,0.00,0.00,114.00
"US1AKKP0001","2009-03-28",,,3.00,3.00,114.00
"US1AKKP0001","2009-03-29",,,3.00,3.00,114.00
"US1AKKP0001","2009-03-30",,,51.00,89.00,191.00
"US1AKKP0001","2009-03-31",,,0.00,0.00,152.00
"US1AKKP0001","2009-04-01",,,0.00,0.00,127.00
"US1AKKP0001","2009-04-02",,,0.00,0.00,127.00
"US1AKKP0001","2009-04-03",,,36.00,51.00,152.00
"US1AKKP0001","2009-04-05",,,,,127.00
"US1AKKP0001","2009-04-06",,,0.00,0.00,102.00
"US1AKKP0001","2009-04-07",,,0.00,0.00,89.00
"US1AKKP0001","2009-04-08",,,0.00,0.00,89.00
"US1AKKP0001","2009-04-09",,,0.00,0.00,76.00
"US1AKKP0001","2009-04-10",,,0.00,0.00,76.00
"US1AKKP0001","2009-04-11",,,3.00,0.00,76.00
"US1AKKP0001","2009-04-12",,,0.00,0.00,64.00
"US1AKKP0001","2009-04-13",,,0.00,0.00,64.00
"US1AKKP0001","2009-04-14",,,3.00,5.00,64.00
"US1AKKP0001","2009-04-15",,,0.00,0.00,51.00
"US1AKKP0001","2009-04-17",,,,,51.00
"US1AKKP0001","2009-04-18",,,0.00,0.00,38.00
"US1AKKP0001","2009-04-19",,,5.00,0.00,25.00
"US1AKKP0001","2009-04-20",,,0.00,0.00,13.00
"US1AKKP0001","2009-04-21",,,0.00,0.00,0.00
"US1AKKP0001","2009-04-22",,,0.00,0.00,0.00
"US1AKKP0001","2009-04-24",,,,,0.00
"US1AKKP0001","2009-04-25",,,0.00,0.00,0.00
"US1AKKP0001","2009-04-26",,,15.00,0.00,0.00
"US1AKKP0001","2009-04-27",,,0.00,0.00,0.00
"US1AKKP0001","2009-04-28",,,0.00,0.00,0.00
"US1AKKP0001","2009-04-29",,,0.00,0.00,0.00
"US1AKKP0001","2009-04-30",,,0.00,0.00,0.00
"US1AKKP0001","2009-05-01",,,0.00,0.00,0.00
"US1AKKP0001","2009-05-03",,,,,0.00
"US1AKKP0001","2009-05-05",,,,,0.00
"US1AKKP0001","2009-05-06",,,0.00,0.00,0.00
"US1AKKP0001","2009-05-07",,,20.00,0.00,0.00
"US1AKKP0001","2009-05-08",,,0.00,0.00,0.00
"US1AKKP0001","2009-05-09",,,0.00,0.00,0.00
"US1AKKP0001","2009-05-10",,,0.00,0.00,0.00
"US1AKKP0001","2009-05-11",,,0.00,0.00,0.00
"US1AKKP0001","2009-05-24",,,,,0.00
"US1AKKP0001","2009-05-25",,,0.00,0.00,0.00
"US1AKKP0001","2009-05-26",,,0.00,0.00,0.00
"US1AKKP0001","2009-05-27",,,0.00,0.00,0.00
"US1AKKP0001","2009-05-28",,,91.00,0.00,0.00
"US1AKKP0001","2009-05-29",,,46.00,0.00,0.00
"US1AKKP0001","2009-05-30",,,0.00,0.00,0.00
"US1AKKP0001","2009-05-31",,,20.00,0.00,0.00
"US1AKKP0001","2009-06-01",,,0.00,0.00,0.00
"US1AKKP0001","2009-06-02",,,0.00,0.00,0.00
"US1AKKP0001","2009-06-03",,,0.00,0.00,0.00
"US1AKKP0001","2009-06-04",,,13.00,0.00,0.00
"US1AKKP0001","2009-06-05",,,30.00,0.00,0.00
"US1AKKP0001","2009-06-06",,,0.00,0.00,0.00
"US1AKKP0001","2009-06-07",,,0.00,0.00,0.00
"US1AKKP0001","2009-06-08",,,0.00,0.00,0.00
"US1AKKP0001","2009-06-09",,,0.00,0.00,0.00
"US1AKKP0001","2009-06-10",,,0.00,0.00,0.00
"US1AKKP0001","2009-06-11",,,0.00,0.00,0.00
"US1AKKP0001","2009-06-12",,,0.00,0.00,0.00
"US1AKKP0001","2009-06-13",,,0.00,0.00,0.00
"US1AKKP0001","2009-06-14",,,0.00,0.00,0.00
"US1AKKP0001","2009-06-15",,,0.00,0.00,0.00
"US1AKKP0001","2009-06-16",,,5.00,0.00,0.00
"US1AKKP0001","2009-06-17",,,0.00,0.00,0.00
"US1AKKP0001","2009-06-18",,,3.00,0.00,0.00
"US1AKKP0001","2009-06-19",,,13.00,0.00,0.00
"US1AKKP0001","2009-06-20",,,0.00,0.00,0.00
"US1AKKP0001","2009-06-21",,,28.00,0.00,0.00
"US1AKKP0001","2009-06-22",,,8.00,0.00,0.00
"US1AKKP0001","2009-06-23",,,107.00,0.00,0.00
"US1AKKP0001","2009-06-24",,,97.00,0.00,0.00
"US1AKKP0001","2009-06-25",,,18.00,0.00,0.00
"US1AKKP0001","2009-06-26",,,10.00,0.00,0.00
"US1AKKP0001","2009-06-27",,,0.00,0.00,0.00
"US1AKKP0001","2009-06-28",,,0.00,0.00,0.00
"US1AKKP0001","2009-06-29",,,0.00,0.00,0.00
"US1AKKP0001","2009-06-30",,,0.00,0.00,0.00
"US1AKKP0001","2009-07-01",,,0.00,0.00,0.00
"US1AKKP0001","2009-07-02",,,0.00,0.00,0.00
"US1AKKP0001","2009-07-03",,,0.00,0.00,0.00
"US1AKKP0001","2009-07-04",,,0.00,0.00,0.00
"US1AKKP0001","2009-07-05",,,0.00,0.00,0.00
"US1AKKP0001","2009-07-06",,,0.00,0.00,0.00
"US1AKKP0001","2009-07-07",,,0.00,0.00,0.00
"US1AKKP0001","2009-07-08",,,0.00,0.00,0.00
"US1AKKP0001","2009-07-09",,,0.00,0.00,0.00
"US1AKKP0001","2009-07-10",,,0.00,0.00,0.00
"US1AKKP0001","2009-07-11",,,0.00,0.00,0.00
"US1AKKP0001","2009-07-12",,,0.00,0.00,0.00
"US1AKKP0001","2009-07-13",,,0.00,0.00,0.00
"US1AKKP0001","2009-07-14",,,0.00,0.00,0.00
"US1AKKP0001","2009-07-15",,,0.00,0.00,0.00
"US1AKKP0001","2009-07-16",,,0.00,0.00,0.00
"US1AKKP0001","2009-07-17",,,0.00,0.00,0.00
"US1AKKP0001","2009-07-18",,,0.00,0.00,0.00
"US1AKKP0001","2009-07-30",,,,,0.00
"US1AKKP0001","2009-07-31",,,30.00,0.00,0.00
"US1AKKP0001","2009-08-01",,,0.00,0.00,0.00
"US1AKKP0001","2009-08-02",,,0.00,0.00,0.00
"US1AKKP0001","2009-08-03",,,0.00,0.00,0.00
"US1AKKP0001","2009-08-04",,,0.00,0.00,0.00
"US1AKKP0001","2009-08-05",,,94.00,0.00,0.00
"US1AKKP0001","2009-08-06",,,0.00,0.00,0.00
"US1AKKP0001","2009-08-07",,,0.00,0.00,0.00
"US1AKKP0001","2009-08-08",,,0.00,0.00,0.00
"US1AKKP0001","2009-08-09",,,0.00,0.00,0.00
"US1AKKP0001","2009-08-10",,,0.00,0.00,0.00
"US1AKKP0001","2009-08-11",,,0.00,0.00,0.00
"US1AKKP0001","2009-08-12",,,0.00,0.00,0.00
"US1AKKP0001","2009-08-13",,,0.00,0.00,0.00
"US1AKKP0001","2009-08-14",,,74.00,0.00,0.00
"US1AKKP0001","2009-08-15",,,142.00,0.00,0.00
"US1AKKP0001","2009-08-16",,,0.00,0.00,0.00
"US1AKKP0001","2009-08-17",,,0.00,0.00,0.00
"US1AKKP0001","2009-08-18",,,0.00,0.00,0.00
"US1AKKP0001","2009-08-19",,,0.00,0.00,0.00
"US1AKKP0001","2009-08-20",,,0.00,0.00,0.00
"US1AKKP0001","2009-08-21",,,0.00,0.00,0.00
"US1AKKP0001","2009-08-22",,,0.00,0.00,0.00
"US1AKKP0001","2009-08-23",,,8.00,0.00,0.00
"US1AKKP0001","2009-08-24",,,112.00,0.00,0.00
"US1AKKP0001","2009-08-25",,,15.00,0.00,0.00
"US1AKKP0001","2009-08-26",,,0.00,0.00,0.00
"US1AKKP0001","2009-08-27",,,13.00,0.00,0.00
"US1AKKP0001","2009-08-30",,,,,0.00
"US1AKKP0001","2009-08-31",,,0.00,0.00,0.00
"US1AKKP0001","2009-09-01",,,0.00,0.00,0.00
"US1AKKP0001","2009-09-02",,,56.00,0.00,0.00
"US1AKKP0001","2009-09-03",,,5.00,0.00,0.00
"US1AKKP0001","2009-09-04",,,0.00,0.00,0.00
"US1AKKP0001","2009-09-05",,,0.00,0.00,0.00
"US1AKKP0001","2009-09-06",,,0.00,0.00,0.00
"US1AKKP0001","2009-09-07",,,0.00,0.00,0.00
"US1AKKP0001","2009-09-08",,,8.00,0.00,0.00
"US1AKKP0001","2009-09-09",,,20.00,0.00,0.00
"US1AKKP0001","2009-09-10",,,0.00,0.00,0.00
"US1AKKP0001","2009-09-11",,,48.00,0.00,0.00
"US1AKKP0001","2009-09-14",,,51.00,,
"US1AKKP0001","2009-09-15",,,0.00,0.00,0.00
"US1AKKP0001","2009-09-16",,,0.00,0.00,0.00
"US1AKKP0001","2009-09-17",,,0.00,0.00,0.00
"US1AKKP0001","2009-09-18",,,0.00,0.00,0.00
"US1AKKP0001","2009-09-19",,,0.00,0.00,0.00
"US1AKKP0001","2009-09-20",,,0.00,0.00,0.00
"US1AKKP0001","2009-09-21",,,3.00,0.00,0.00
"US1AKKP0001","2009-09-22",,,10.00,0.00,0.00
"US1AKKP0001","2009-09-23",,,0.00,0.00,0.00
"US1AKKP0001","2009-09-24",,,0.00,0.00,0.00
"US1AKKP0001","2009-09-25",,,91.00,0.00,0.00
"US1AKKP0001","2009-09-26",,,23.00,,
"US1AKKP0001","2009-09-27",,,0.00,0.00,0.00
"US1AKKP0001","2009-09-28",,,8.00,0.00,0.00
"US1AKKP0001","2009-09-29",,,0.00,0.00,0.00
"US1AKKP0001","2009-09-30",,,48.00,0.00,0.00
"US1AKKP0001","2009-10-01",,,0.00,0.00,0.00
"US1AKKP0001","2009-10-02",,,0.00,0.00,0.00
"US1AKKP0001","2009-10-03",,,23.00,0.00,0.00
"US1AKKP0001","2009-10-04",,,0.00,0.00,0.00
"US1AKKP0001","2009-10-05",,,25.00,0.00,0.00
"US1AKKP0001","2009-10-06",,,3.00,0.00,0.00
"US1AKKP0001","2009-10-07",,,86.00,0.00,0.00
"US1AKKP0001","2009-10-08",,,56.00,0.00,0.00
"US1AKKP0001","2009-10-09",,,51.00,0.00,0.00
"US1AKKP0001","2009-10-10",,,3.00,0.00,0.00
"US1AKKP0001","2009-10-12",,,,,0.00
"US1AKKP0001","2009-10-13",,,5.00,0.00,0.00
"US1AKKP0001","2009-10-14",,,5.00,0.00,0.00
"US1AKKP0001","2009-10-15",,,5.00,0.00,0.00
"US1AKKP0001","2009-10-16",,,3.00,0.00,0.00
"US1AKKP0001","2009-10-17",,,0.00,0.00,0.00
"US1AKKP0001","2009-10-18",,,0.00,0.00,0.00
"US1AKKP0001","2009-10-19",,,0.00,0.00,0.00
"US1AKKP0001","2009-10-20",,,0.00,0.00,0.00
"US1AKKP0001","2009-10-21",,,0.00,0.00,0.00
"US1AKKP0001","2009-10-22",,,0.00,0.00,0.00
"US1AKKP0001","2009-10-23",,,0.00,0.00,0.00
"US1AKKP0001","2009-10-24",,,0.00,0.00,0.00
"US1AKKP0001","2009-10-25",,,13.00,0.00,0.00
"US1AKKP0001","2009-10-26",,,0.00,0.00,0.00
"US1AKKP0001","2009-10-27",,,5.00,0.00,0.00
"US1AKKP0001","2009-10-28",,,0.00,0.00,0.00
"US1AKKP0001","2009-10-29",,,3.00,3.00,0.00
"US1AKKP0001","2009-10-30",,,0.00,0.00,0.00
"US1AKKP0001","2009-10-31",,,0.00,0.00,0.00
"US1AKKP0001","2009-11-01",,,0.00,0.00,0.00
"US1AKKP0001","2009-11-02",,,0.00,0.00,0.00
"US1AKKP0001","2009-11-03",,,0.00,0.00,0.00
"US1AKKP0001","2009-11-04",,,0.00,0.00,0.00
"US1AKKP0001","2009-11-05",,,0.00,0.00,0.00
"US1AKKP0001","2009-11-06",,,0.00,0.00,0.00
"US1AKKP0001","2009-11-07",,,0.00,0.00,0.00
"US1AKKP0001","2009-11-08",,,0.00,0.00,0.00
"US1AKKP0001","2009-11-09",,,0.00,0.00,0.00
"US1AKKP0001","2009-11-10",,,0.00,0.00,0.00
"US1AKKP0001","2009-11-11",,,15.00,18.00,13.00
"US1AKKP0001","2009-11-12",,,36.00,20.00,38.00
"US1AKKP0001","2009-11-13",,,5.00,5.00,38.00
"US1AKKP0001","2009-11-14",,,3.00,3.00,38.00
"US1AKKP0001","2009-11-15",,,0.00,0.00,38.00
"US1AKKP0001","2009-11-16",,,0.00,0.00,38.00
"US1AKKP0001","2009-11-17",,,0.00,0.00,38.00
"US1AKKP0001","2009-11-18",,,0.00,0.00,38.00
"US1AKKP0001","2009-11-19",,,0.00,0.00,38.00
"US1AKKP0001","2009-11-20",,,0.00,0.00,38.00
"US1AKKP0001","2009-11-21",,,0.00,0.00,38.00
"US1AKKP0001","2009-11-22",,,0.00,0.00,38.00
"US1AKKP0001","2009-11-23",,,0.00,0.00,38.00
"US1AKKP0001","2009-11-24",,,8.00,0.00,13.00
"US1AKKP0001","2009-11-25",,,0.00,0.00,13.00
"US1AKKP0001","2009-11-29",,,,,91.00
"US1AKKP0001","2009-11-30",,,13.00,20.00,102.00
"US1AKKP0001","2009-12-01",,,282.00,112.00,178.00
"US1AKKP0001","2009-12-02",,,79.00,5.00,165.00
"US1AKKP0001","2009-12-03",,,0.00,0.00,165.00
"US1AKKP0001","2009-12-04",,,0.00,0.00,165.00
"US1AKKP0001","2009-12-05",,,0.00,0.00,165.00
"US1AKKP0001","2009-12-06",,,0.00,0.00,165.00
"US1AKKP0001","2009-12-07",,,0.00,0.00,165.00
"US1AKKP0001","2009-12-10",,,,,165.00
"US1AKKP0001","2009-12-11",,,0.00,0.00,165.00
"US1AKKP0001","2009-12-12",,,0.00,0.00,165.00
"US1AKKP0001","2009-12-13",,,0.00,0.00,165.00
"US1AKKP0001","2009-12-14",,,0.00,0.00,165.00
"US1AKKP0001","2009-12-15",,,20.00,51.00,216.00
"US1AKKP0001","2009-12-16",,,10.00,38.00,254.00
"US1AKKP0001","2009-12-17",,,3.00,8.00,229.00
"US1AKKP0001","2009-12-18",,,0.00,3.00,229.00
"US1AKKP0001","2009-12-19",,,3.00,8.00,229.00
"US1AKKP0001","2009-12-20",,,5.00,15.00,241.00
"US1AKKP0001","2009-12-21",,,0.00,0.00,229.00
"US1AKKP0001","2009-12-22",,,0.00,0.00,152.00
"US1AKKP0001","2009-12-23",,,8.00,13.00,152.00
"US1AKKP0001","2009-12-27",,,,,127.00
"US1AKKP0001","2009-12-28",,,0.00,0.00,114.00
"US1AKKP0001","2009-12-29",,,0.00,0.00,114.00
"US1AKKP0001","2009-12-30",,,0.00,0.00,114.00
"US1AKKP0001","2009-12-31",,,0.00,0.00,114.00
"US1AKKP0001","2010-01-01",,,0.00,0.00,114.00
"US1AKKP0001","2010-01-02",,,0.00,0.00,114.00
"US1AKKP0001","2010-01-03",,,0.00,0.00,114.00
"US1AKKP0001","2010-01-04",,,5.00,5.00,114.00
"US1AKKP0001","2010-01-05",,,0.00,0.00,114.00
"US1AKKP0001","2010-01-06",,,20.00,25.00,140.00
"US1AKKP0001","2010-01-07",,,56.00,30.00,152.00
"US1AKKP0001","2010-01-08",,,0.00,0.00,140.00
"US1AKKP0001","2010-01-09",,,0.00,0.00,127.00
"US1AKKP0001","2010-01-10",,,0.00,0.00,127.00
"US1AKKP0001","2010-01-11",,,0.00,0.00,127.00
"US1AKKP0001","2010-01-12",,,5.00,3.00,127.00
"US1AKKP0001","2010-01-13",,,3.00,3.00,127.00
"US1AKKP0001","2010-01-14",,,5.00,5.00,127.00
"US1AKKP0001","2010-01-15",,,10.00,15.00,140.00
"US1AKKP0001","2010-01-16",,,0.00,0.00,140.00
"US1AKKP0001","2010-01-17",,,3.00,8.00,140.00
"US1AKKP0001","2010-01-18",,,8.00,8.00,152.00
"US1AKKP0001","2010-01-19",,,0.00,0.00,152.00
"US1AKKP0001","2010-01-20",,,0.00,0.00,152.00
"US1AKKP0001","2010-01-21",,,0.00,0.00,152.00
"US1AKKP0001","2010-01-22",,,0.00,0.00,140.00
"US1AKKP0001","2010-01-23",,,0.00,0.00,140.00
"US1AKKP0001","2010-01-24",,,0.00,0.00,140.00
"US1AKKP0001","2010-01-25",,,0.00,0.00,140.00
"US1AKKP0001","2010-01-26",,,0.00,0.00,140.00
"US1AKKP0001","2010-01-27",,,0.00,0.00,140.00
"US1AKKP0001","2010-01-28",,,0.00,0.00,140.00
"US1AKKP0001","2010-01-29",,,0.00,0.00,140.00
"US1AKKP0001","2010-01-30",,,3.00,0.00,127.00
"US1AKKP0001","2010-01-31",,,0.00,0.00,127.00